Weather History for KGCC - December, 2011

Change the Weather History Date:

Thursday, December 1, 2011

  Actual Average Record
Temperature  
Mean Temperature 21 °F 26 °F  
Max Temperature 28 °F 37 °F 64 °F (1973)
Min Temperature 14 °F 15 °F -19 °F (1985)
Degree Days  
Heating Degree Days 44 39  
Month to date heating degree days 44 39  
Since 1 July heating degree days 1689 1914  
Cooling Degree Days 0 0  
Month to date cooling degree days 0 0  
Year to date cooling degree days 561 502  
Moisture  
Dew Point 17 °F    
Average Humidity 80    
Maximum Humidity 92    
Minimum Humidity 67    
Precipitation  
Precipitation 0.02 in 0.02 in 0.52 in (1980)
Month to date precipitation 0.02 0.02  
Year to date precipitation 16.99 13.51  
Sea Level Pressure  
Sea Level Pressure 30.50 in    
Wind  
Wind Speed 19 mph (NNE)    
Max Wind Speed 27 mph    
Max Gust Speed 33 mph    
Visibility 9 miles    
Events Snow    
T = Trace of Precipitation, MM = Missing Value Source: NWS Daily Summary

Daily Weather History Graph

Daily Weather History Graph

Search for Another Location

Airport or City:

Trip Planner

Search our weather history database for the weather conditions in past years. The results will help you decide how hot, cold, wet, or windy it might be!

Date:

Astronomy

Dec. 01, 2011 Rise Set
Actual Time 7:17 AM MST 4:24 PM MST
Civil Twilight 6:45 AM MST 4:56 PM MST
Nautical Twilight 6:08 AM MST 5:33 PM MST
Astronomical Twilight 5:33 AM MST 6:08 PM MST
Moon 11:54 AM MST (12/1) 11:36 PM MST (12/1)
Length of Visible Light 10h 11m
Length of Day
9h 06m
Waxing Crescent, 44% of the Moon is Illuminated
Dec 1
Waxing Crescent
Dec 2
First Quarter
Dec 10
Full
Dec 17
Last Quarter
Dec 24
New

Hourly Weather History & Observations

Time (MST) Temp. Windchill Dew Point Humidity Pressure Visibility Wind Dir Wind Speed Gust Speed Precip Events Conditions
12:03 AM 28.4 °F 13.8 °F 26.6 °F 93% 30.28 in 5.0 mi North 25.3 mph - 0.01 in   Overcast
12:53 AM 26.1 °F 11.6 °F 24.1 °F 92% 30.40 in 7.0 mi North 21.9 mph 33.4 mph 0.01 in   Overcast
1:26 AM 24.8 °F 9.3 °F 21.2 °F 86% 30.35 in 2.5 mi NNE 24.2 mph 32.2 mph N/A Snow Light Snow
1:39 AM 24.8 °F 10.3 °F 19.4 °F 80% 30.37 in 5.0 mi NNE 20.7 mph 29.9 mph 0.00 in Snow Light Snow
1:45 AM 24.8 °F 11.5 °F 19.4 °F 80% 30.37 in 8.0 mi NNE 17.3 mph 26.5 mph 0.00 in Snow Light Snow
1:53 AM 24.1 °F 9.8 °F 21.0 °F 88% 30.47 in 4.0 mi North 19.6 mph - 0.00 in Snow Light Snow
2:05 AM 23.0 °F 7.6 °F 21.2 °F 93% 30.39 in 4.0 mi NNE 21.9 mph - 0.01 in Snow Light Snow
2:12 AM 23.0 °F - 21.2 °F 93% 30.39 in 5.0 mi North - - 0.01 in Snow Light Snow
2:26 AM 23.0 °F - 19.4 °F 86% 30.41 in 9.0 mi North - - 0.01 in Snow Light Snow
2:34 AM 23.0 °F - 19.4 °F 86% 30.41 in 9.0 mi North - - 0.01 in Snow Light Snow
2:53 AM 23.0 °F - 19.9 °F 88% 30.52 in 5.0 mi North - - 0.01 in Snow Light Snow
3:45 AM 21.2 °F - 19.4 °F 93% 30.46 in 6.0 mi North - - 0.00 in Snow Light Snow
3:53 AM 21.9 °F - 19.0 °F 89% 30.58 in 8.0 mi North - - 0.00 in Snow Light Snow
4:32 AM 21.2 °F - 19.4 °F 93% 30.49 in 9.0 mi North - - 0.00 in Snow Light Snow
4:53 AM 21.0 °F - 18.0 °F 88% 30.61 in 8.0 mi North - - 0.00 in Snow Light Snow
5:19 AM 21.2 °F - 17.6 °F 86% 30.51 in 9.0 mi North - - 0.00 in Snow Light Snow
5:32 AM 19.4 °F - 17.6 °F 93% 30.51 in 9.0 mi North - - 0.00 in Snow Light Snow
5:41 AM 19.4 °F - 17.6 °F 93% 30.51 in 8.0 mi North - - 0.00 in Snow Light Snow
5:53 AM 19.9 °F - 17.1 °F 89% 30.65 in 9.0 mi North - - 0.00 in Snow Light Snow
6:53 AM 19.0 °F - 15.1 °F 85% 30.68 in 9.0 mi North - - 0.00 in Snow Light Snow
6:55 AM 19.4 °F 7.2 °F 15.8 °F 86% 30.54 in 9.0 mi North 11.5 mph - N/A Snow Light Snow
7:01 AM 19.4 °F - 15.8 °F 86% 30.55 in 9.0 mi North - - 0.00 in Snow Light Snow
7:53 AM 19.9 °F - 16.0 °F 85% 30.69 in 9.0 mi North - - 0.00 in Snow Light Snow
8:34 AM 19.4 °F - 15.8 °F 86% 30.56 in - North - - N/A   Unknown
8:53 AM 19.9 °F - 16.0 °F 85% 30.69 in 10.0 mi North - - N/A   Unknown
8:55 AM 19.4 °F 11.5 °F 15.8 °F 86% 30.56 in 9.0 mi NE 5.8 mph - N/A Snow Light Snow
9:04 AM 19.4 °F - 15.8 °F 86% 30.57 in 10.0 mi North - - N/A   Overcast
9:53 AM 21.0 °F - 15.1 °F 78% 30.70 in 10.0 mi North - - N/A   Overcast
10:05 AM 21.2 °F 14.9 °F 15.8 °F 80% 30.57 in 10.0 mi ESE 4.6 mph - N/A   Overcast
10:53 AM 21.0 °F - 15.1 °F 78% 30.69 in 10.0 mi North - - N/A   Overcast
10:55 AM 21.2 °F 10.9 °F 15.8 °F 80% 30.56 in 10.0 mi West 9.2 mph - N/A   Overcast
11:53 AM 21.0 °F - 17.1 °F 85% 30.64 in 10.0 mi North - - N/A   Overcast
11:55 AM 21.2 °F 10.9 °F 17.6 °F 86% 30.51 in 10.0 mi WSW 9.2 mph - N/A   Overcast
12:19 PM 21.2 °F - 17.6 °F 86% 30.50 in 10.0 mi North - - N/A   Partly Cloudy
12:43 PM 21.2 °F - 17.6 °F 86% 30.49 in 10.0 mi North - - N/A   Mostly Cloudy
12:53 PM 21.9 °F - 17.1 °F 82% 30.62 in 10.0 mi North - - N/A   Mostly Cloudy
12:55 PM 21.2 °F 7.3 °F 17.6 °F 86% 30.47 in 10.0 mi South 16.1 mph - N/A   Mostly Cloudy
1:21 PM 21.2 °F - 17.6 °F 86% 30.46 in 10.0 mi North - - N/A   Scattered Clouds
1:53 PM 21.9 °F - 17.1 °F 82% 30.58 in 10.0 mi North - - N/A   Clear
2:53 PM 21.0 °F - 16.0 °F 81% 30.55 in 10.0 mi North - - N/A   Clear
2:55 PM 21.2 °F 8.3 °F 15.8 °F 80% 30.40 in 10.0 mi South 13.8 mph - N/A   Clear
3:53 PM 19.0 °F - 14.0 °F 81% 30.53 in 10.0 mi North - - N/A   Clear
4:53 PM 17.1 °F - 12.0 °F 81% 30.51 in 10.0 mi North - - N/A   Clear
5:53 PM 16.0 °F - 10.9 °F 81% 30.48 in 10.0 mi North - - N/A   Clear
6:53 PM 16.0 °F - 10.0 °F 77% 30.44 in 10.0 mi North - - N/A   Clear
7:53 PM 17.1 °F - 10.0 °F 74% 30.40 in 10.0 mi North - - N/A   Clear
8:53 PM 15.1 °F - 9.0 °F 77% 30.35 in 10.0 mi North - - N/A   Clear
10:53 PM 17.1 °F - 9.0 °F 71% 30.26 in 10.0 mi North - - N/A   Clear
11:53 PM 23.0 °F - 12.0 °F 63% 30.16 in 10.0 mi North - - N/A   Clear